map of NAS home
Great Circle Mapper logo
NAS - Airport
Location
City:  Nassau, New Providence Island, Bahamas
Name:Lynden Pindling International Airport
ICAO / IATA:MYNN / NAS

Details
Type:Airport (Aerodrome, Airfield)
Use:Public/Civil, International (customs port of entry)
Latitude:2502'20"N (25.038958)
Longitude:7727'58"W (-77.466230)
Datum:WGS 1984
Elevation:16 ft (5 m)
Runways:2
Longest:11353 × 150 ft (3460 × 45.5 m), paved

Time
Time Zone:UTC-5 (DST-4)
Local Time:

Weather
METAR:MYNN 221100Z 09002KT 9999 FEW018 27/23 A3005
TAF:MYNN 211700Z 2118/2218 13008KT 9999 FEW015CB SCT018
BECMG 2200/2202 VRB02KT
BECMG 2212/2214 14010KT PROB30
TEMPO 2214/2218 13015KT 6000 SHRA FEW014CB BKN016

Related Locations
Nearby:
Farthest:USL: 11765 mi / 18933 km
Useless Loop, WA, AU

Find:

   beyond  
but within

Other Information
Maps:
NOTAMs:
Links:
Sources:

  
flag of Bahamas   

Airport Diagram

Airport diagram for NAS

Airport diagram (OBSOLETE) from NGA

Sectional Chart

Flight Planning
at skyvector.com

Satellite Image

Google Maps Satellite View

 

Copyright © 2004-2014 Karl L. Swartz. All rights reserved.
The Great Circle Mapper name and logo are trademarks of the Great Circle Mapper.
All other trademarks mentioned herein belong to their respective owners.
Please see credits for attibutions and further copyright information.

  Follow gcmap on Facebook Follow gcmap on Twitter

hCard Microformat

Geo Microformat